Time,TemperatureF,DewpointF,PressureIn,WindDirection,WindDirectionDegrees,WindSpeedMPH,WindSpeedGustMPH,Humidity,HourlyPrecipIn,Conditions,Clouds,dailyrainin,SoftwareType,DateUTC
2013-07-13 00:00:00,81.3,76.3,29.88,North,-999,0.0,0.0,85,0.00,,,-99.99,FreeWX 2.03,2013-07-13 05:00:00,
2013-07-13 00:05:00,81.3,76.3,29.88,North,-999,0.0,0.0,85,0.00,,,-99.99,FreeWX 2.03,2013-07-13 05:05:00,
2013-07-13 00:10:00,81.3,76.3,29.88,North,-999,0.0,0.0,85,0.00,,,-99.99,FreeWX 2.03,2013-07-13 05:10:00,
2013-07-13 00:15:00,81.5,76.8,29.88,North,-999,0.0,0.0,86,0.00,,,-99.99,FreeWX 2.03,2013-07-13 05:15:00,
2013-07-13 00:20:00,81.5,76.8,29.88,North,-999,0.0,0.0,86,0.00,,,-99.99,FreeWX 2.03,2013-07-13 05:20:00,
2013-07-13 00:25:00,81.5,76.8,29.88,North,-999,0.0,0.0,86,0.00,,,-99.99,FreeWX 2.03,2013-07-13 05:25:00,
2013-07-13 00:30:00,81.5,76.8,29.88,North,-999,0.0,0.0,86,0.00,,,-99.99,FreeWX 2.03,2013-07-13 05:30:00,
2013-07-13 00:35:00,81.3,76.6,29.88,North,-999,0.0,0.0,86,0.00,,,-99.99,FreeWX 2.03,2013-07-13 05:35:00,
2013-07-13 00:40:00,81.1,76.5,29.88,North,-999,0.0,0.0,86,0.00,,,-99.99,FreeWX 2.03,2013-07-13 05:40:00,
2013-07-13 00:45:00,81.0,76.3,29.88,North,-999,0.0,0.0,86,0.00,,,-99.99,FreeWX 2.03,2013-07-13 05:45:00,
2013-07-13 00:50:00,81.0,75.9,29.88,North,-999,0.0,0.0,85,0.00,,,-99.99,FreeWX 2.03,2013-07-13 05:50:00,
2013-07-13 00:55:00,81.0,75.9,29.88,North,-999,0.0,0.0,85,0.00,,,-99.99,FreeWX 2.03,2013-07-13 05:55:00,
2013-07-13 01:00:00,80.8,75.9,29.88,North,-999,0.0,0.0,85,0.00,,,-99.99,FreeWX 2.03,2013-07-13 06:00:00,
2013-07-13 01:05:00,80.8,76.1,29.88,North,-999,0.0,0.0,86,0.00,,,-99.99,FreeWX 2.03,2013-07-13 06:05:00,
2013-07-13 01:10:00,80.8,76.1,29.88,North,-999,0.0,0.0,86,0.00,,,-99.99,FreeWX 2.03,2013-07-13 06:10:00,
2013-07-13 01:15:00,80.6,76.3,29.88,North,-999,0.0,0.0,87,0.00,,,-99.99,FreeWX 2.03,2013-07-13 06:15:00,
2013-07-13 01:20:00,80.6,76.3,29.88,North,-999,0.0,0.0,87,0.00,,,-99.99,FreeWX 2.03,2013-07-13 06:20:00,
2013-07-13 01:25:00,80.4,76.1,29.88,North,-999,0.0,0.0,87,0.00,,,-99.99,FreeWX 2.03,2013-07-13 06:25:00,
2013-07-13 01:30:00,80.4,76.1,29.88,North,-999,0.0,0.0,87,0.00,,,-99.99,FreeWX 2.03,2013-07-13 06:30:00,
2013-07-13 01:35:00,80.6,76.6,29.88,North,-999,0.0,0.0,88,0.00,,,-99.99,FreeWX 2.03,2013-07-13 06:35:00,
2013-07-13 01:40:00,80.4,76.5,29.88,North,-999,0.0,0.0,88,0.00,,,-99.99,FreeWX 2.03,2013-07-13 06:40:00,
2013-07-13 01:45:00,80.4,76.5,29.88,North,-999,0.0,0.0,88,0.00,,,-99.99,FreeWX 2.03,2013-07-13 06:45:00,
2013-07-13 01:50:00,80.4,76.5,29.88,North,-999,0.0,0.0,88,0.00,,,-99.99,FreeWX 2.03,2013-07-13 06:50:00,
2013-07-13 01:55:00,80.4,76.8,29.88,North,-999,0.0,0.0,89,0.00,,,-99.99,FreeWX 2.03,2013-07-13 06:55:00,
2013-07-13 02:00:00,80.2,76.6,29.88,North,-999,0.0,0.0,89,0.00,,,-99.99,FreeWX 2.03,2013-07-13 07:00:00,
2013-07-13 02:05:00,80.1,76.5,29.88,North,-999,0.0,0.0,89,0.00,,,-99.99,FreeWX 2.03,2013-07-13 07:05:00,
2013-07-13 02:10:00,80.1,76.5,29.88,North,-999,0.0,0.0,89,0.00,,,-99.99,FreeWX 2.03,2013-07-13 07:10:00,
2013-07-13 02:15:00,80.1,76.1,29.88,North,-999,0.0,0.0,88,0.00,,,-99.99,FreeWX 2.03,2013-07-13 07:15:00,
2013-07-13 02:20:00,80.1,76.1,29.88,North,-999,0.0,0.0,88,0.00,,,-99.99,FreeWX 2.03,2013-07-13 07:20:00,
2013-07-13 02:25:00,80.1,76.1,29.88,North,-999,0.0,0.0,88,0.00,,,-99.99,FreeWX 2.03,2013-07-13 07:25:00,
2013-07-13 02:30:00,80.1,76.1,29.88,North,-999,0.0,0.0,88,0.00,,,-99.99,FreeWX 2.03,2013-07-13 07:30:00,
2013-07-13 02:35:00,80.1,76.5,29.88,North,-999,0.0,0.0,89,0.00,,,-99.99,FreeWX 2.03,2013-07-13 07:35:00,
2013-07-13 02:40:00,80.1,76.5,29.88,North,-999,0.0,0.0,89,0.00,,,-99.99,FreeWX 2.03,2013-07-13 07:40:00,
2013-07-13 02:45:00,80.1,76.5,29.88,North,-999,0.0,0.0,89,0.00,,,-99.99,FreeWX 2.03,2013-07-13 07:45:00,
2013-07-13 02:50:00,80.1,76.5,29.88,North,-999,0.0,0.0,89,0.00,,,-99.99,FreeWX 2.03,2013-07-13 07:50:00,
2013-07-13 02:56:00,79.9,76.3,29.88,North,-999,0.0,0.0,89,0.00,,,-99.99,FreeWX 2.03,2013-07-13 07:56:00,
2013-07-13 03:01:00,79.9,76.3,29.88,North,-999,0.0,0.0,89,0.00,,,-99.99,FreeWX 2.03,2013-07-13 08:01:00,
2013-07-13 03:06:00,79.9,76.3,29.88,North,-999,0.0,0.0,89,0.00,,,-99.99,FreeWX 2.03,2013-07-13 08:06:00,
2013-07-13 03:11:00,79.9,76.3,29.88,North,-999,0.0,0.0,89,0.00,,,-99.99,FreeWX 2.03,2013-07-13 08:11:00,
2013-07-13 03:16:00,79.7,76.5,29.88,North,-999,0.0,0.0,90,0.00,,,-99.99,FreeWX 2.03,2013-07-13 08:16:00,
2013-07-13 03:21:00,79.7,76.5,29.88,North,-999,0.0,0.0,90,0.00,,,-99.99,FreeWX 2.03,2013-07-13 08:21:00,
2013-07-13 03:26:00,79.7,76.5,29.88,North,-999,0.0,0.0,90,0.00,,,-99.99,FreeWX 2.03,2013-07-13 08:26:00,
2013-07-13 03:31:00,79.7,76.1,29.88,North,-999,0.0,0.0,89,0.00,,,-99.99,FreeWX 2.03,2013-07-13 08:31:00,
2013-07-13 03:36:00,79.7,76.1,29.88,North,-999,0.0,0.0,89,0.00,,,-99.99,FreeWX 2.03,2013-07-13 08:36:00,
2013-07-13 03:41:00,79.7,76.1,29.88,North,-999,0.0,0.0,89,0.00,,,-99.99,FreeWX 2.03,2013-07-13 08:41:00,
2013-07-13 03:46:00,79.7,76.1,29.88,North,-999,0.0,0.0,89,0.00,,,-99.99,FreeWX 2.03,2013-07-13 08:46:00,
2013-07-13 03:51:00,79.7,76.1,29.88,North,-999,0.0,0.0,89,0.00,,,-99.99,FreeWX 2.03,2013-07-13 08:51:00,
2013-07-13 03:56:00,79.7,76.1,29.88,North,-999,0.0,0.0,89,0.00,,,-99.99,FreeWX 2.03,2013-07-13 08:56:00,
2013-07-13 04:01:00,79.7,76.1,29.88,North,-999,0.0,0.0,89,0.00,,,-99.99,FreeWX 2.03,2013-07-13 09:01:00,
2013-07-13 04:06:00,79.7,76.1,29.88,North,-999,0.0,0.0,89,0.00,,,-99.99,FreeWX 2.03,2013-07-13 09:06:00,
2013-07-13 04:11:00,79.5,75.9,29.88,North,-999,0.0,0.0,89,0.00,,,-99.99,FreeWX 2.03,2013-07-13 09:11:00,
2013-07-13 04:16:00,79.5,75.9,29.88,North,-999,0.0,0.0,89,0.00,,,-99.99,FreeWX 2.03,2013-07-13 09:16:00,
2013-07-13 04:21:00,79.5,75.9,29.88,North,-999,0.0,0.0,89,0.00,,,-99.99,FreeWX 2.03,2013-07-13 09:21:00,
2013-07-13 04:26:00,79.3,75.7,29.88,North,-999,0.0,0.0,89,0.00,,,-99.99,FreeWX 2.03,2013-07-13 09:26:00,
2013-07-13 04:31:00,79.3,76.1,29.88,North,-999,0.0,0.0,90,0.00,,,-99.99,FreeWX 2.03,2013-07-13 09:31:00,
2013-07-13 04:36:00,79.3,76.1,29.88,North,-999,0.0,0.0,90,0.00,,,-99.99,FreeWX 2.03,2013-07-13 09:36:00,
2013-07-13 04:41:00,79.3,76.1,29.88,North,-999,0.0,0.0,90,0.00,,,-99.99,FreeWX 2.03,2013-07-13 09:41:00,
2013-07-13 04:46:00,79.2,75.9,29.88,North,-999,0.0,0.0,90,0.00,,,-99.99,FreeWX 2.03,2013-07-13 09:46:00,
2013-07-13 04:51:00,79.2,75.9,29.88,North,-999,0.0,0.0,90,0.00,,,-99.99,FreeWX 2.03,2013-07-13 09:51:00,
2013-07-13 04:56:00,79.2,75.9,29.88,North,-999,0.0,0.0,90,0.00,,,-99.99,FreeWX 2.03,2013-07-13 09:56:00,
2013-07-13 05:01:00,79.2,75.9,29.88,North,-999,0.0,0.0,90,0.00,,,-99.99,FreeWX 2.03,2013-07-13 10:01:00,
2013-07-13 05:06:00,79.0,76.1,29.88,North,-999,0.0,0.0,91,0.00,,,-99.99,FreeWX 2.03,2013-07-13 10:06:00,
2013-07-13 05:11:00,79.0,76.1,29.88,North,-999,0.0,0.0,91,0.00,,,-99.99,FreeWX 2.03,2013-07-13 10:11:00,
2013-07-13 05:16:00,79.0,76.1,29.88,North,-999,0.0,0.0,91,0.00,,,-99.99,FreeWX 2.03,2013-07-13 10:16:00,
2013-07-13 05:21:00,78.8,75.9,29.88,North,-999,0.0,0.0,91,0.00,,,-99.99,FreeWX 2.03,2013-07-13 10:21:00,
2013-07-13 05:26:00,78.6,75.7,29.88,North,-999,0.0,0.0,91,0.00,,,-99.99,FreeWX 2.03,2013-07-13 10:26:00,
2013-07-13 05:31:00,78.6,76.1,29.88,North,-999,0.0,0.0,92,0.00,,,-99.99,FreeWX 2.03,2013-07-13 10:31:00,
2013-07-13 05:36:00,78.6,76.1,29.88,North,-999,0.0,0.0,92,0.00,,,-99.99,FreeWX 2.03,2013-07-13 10:36:00,
2013-07-13 05:41:00,78.6,76.5,29.88,North,-999,0.0,0.0,93,0.00,,,-99.99,FreeWX 2.03,2013-07-13 10:41:00,
2013-07-13 05:46:00,78.6,76.5,29.88,North,-999,0.0,0.0,93,0.00,,,-99.99,FreeWX 2.03,2013-07-13 10:46:00,
2013-07-13 05:51:00,78.6,76.5,29.88,North,-999,0.0,0.0,93,0.00,,,-99.99,FreeWX 2.03,2013-07-13 10:51:00,
2013-07-13 05:56:00,78.6,76.8,29.88,North,-999,0.0,0.0,94,0.00,,,-99.99,FreeWX 2.03,2013-07-13 10:56:00,
2013-07-13 06:01:00,78.6,76.8,29.88,North,-999,0.0,0.0,94,0.00,,,-99.99,FreeWX 2.03,2013-07-13 11:01:00,
2013-07-13 06:06:00,78.6,76.8,29.88,North,-999,0.0,0.0,94,0.00,,,-99.99,FreeWX 2.03,2013-07-13 11:06:00,
2013-07-13 06:11:00,78.6,76.8,29.88,North,-999,0.0,0.0,94,0.00,,,-99.99,FreeWX 2.03,2013-07-13 11:11:00,
2013-07-13 06:16:00,78.6,76.8,29.88,North,-999,0.0,0.0,94,0.00,,,-99.99,FreeWX 2.03,2013-07-13 11:16:00,
2013-07-13 06:21:00,78.8,77.0,29.88,North,-999,0.0,0.0,94,0.00,,,-99.99,FreeWX 2.03,2013-07-13 11:21:00,
2013-07-13 06:26:00,78.8,77.2,29.88,North,-999,0.0,0.0,95,0.00,,,-99.99,FreeWX 2.03,2013-07-13 11:26:00,
2013-07-13 06:31:00,79.0,77.4,29.88,North,-999,0.0,0.0,95,0.00,,,-99.99,FreeWX 2.03,2013-07-13 11:31:00,
2013-07-13 06:36:00,79.0,77.4,29.88,North,-999,0.0,0.0,95,0.00,,,-99.99,FreeWX 2.03,2013-07-13 11:36:00,
2013-07-13 06:41:00,79.0,77.4,29.88,North,-999,0.0,0.0,95,0.00,,,-99.99,FreeWX 2.03,2013-07-13 11:41:00,
2013-07-13 06:46:00,79.0,77.4,29.88,North,-999,0.0,0.0,95,0.00,,,-99.99,FreeWX 2.03,2013-07-13 11:46:00,
2013-07-13 06:51:00,78.8,77.2,29.88,North,-999,0.0,0.0,95,0.00,,,-99.99,FreeWX 2.03,2013-07-13 11:51:00,
2013-07-13 06:56:00,78.8,77.2,29.88,North,-999,0.0,0.0,95,0.00,,,-99.99,FreeWX 2.03,2013-07-13 11:56:00,
2013-07-13 07:01:00,79.0,77.4,29.88,North,-999,0.0,0.0,95,0.00,,,-99.99,FreeWX 2.03,2013-07-13 12:01:00,
2013-07-13 07:06:00,79.0,77.4,29.88,North,-999,0.0,0.0,95,0.00,,,-99.99,FreeWX 2.03,2013-07-13 12:06:00,
2013-07-13 07:11:00,79.2,77.5,29.91,North,-999,0.0,0.0,95,0.00,,,-99.99,FreeWX 2.03,2013-07-13 12:11:00,
2013-07-13 07:16:00,79.2,77.5,29.91,North,-999,0.0,0.0,95,0.00,,,-99.99,FreeWX 2.03,2013-07-13 12:16:00,
2013-07-13 07:21:00,79.2,77.5,29.91,North,-999,0.0,0.0,95,0.00,,,-99.99,FreeWX 2.03,2013-07-13 12:21:00,
2013-07-13 07:26:00,79.3,77.7,29.91,North,-999,0.0,0.0,95,0.00,,,-99.99,FreeWX 2.03,2013-07-13 12:26:00,
2013-07-13 07:31:00,79.3,77.7,29.91,North,-999,0.0,0.0,95,0.00,,,-99.99,FreeWX 2.03,2013-07-13 12:31:00,
2013-07-13 07:36:00,79.3,77.7,29.91,North,-999,0.0,0.0,95,0.00,,,-99.99,FreeWX 2.03,2013-07-13 12:36:00,
2013-07-13 07:41:00,79.5,78.3,29.91,North,-999,0.0,0.0,96,0.00,,,-99.99,FreeWX 2.03,2013-07-13 12:41:00,
2013-07-13 07:46:00,79.5,78.3,29.91,North,-999,0.0,0.0,96,0.00,,,-99.99,FreeWX 2.03,2013-07-13 12:46:00,
2013-07-13 07:51:00,79.3,78.1,29.91,North,-999,0.0,0.0,96,0.00,,,-99.99,FreeWX 2.03,2013-07-13 12:51:00,
2013-07-13 07:56:00,79.5,78.3,29.91,North,-999,0.0,0.0,96,0.00,,,-99.99,FreeWX 2.03,2013-07-13 12:56:00,
2013-07-13 08:01:00,79.5,78.3,29.91,North,-999,0.0,0.0,96,0.00,,,-99.99,FreeWX 2.03,2013-07-13 13:01:00,
2013-07-13 08:06:00,79.9,78.6,29.91,North,-999,0.0,0.0,96,0.00,,,-99.99,FreeWX 2.03,2013-07-13 13:06:00,
2013-07-13 08:11:00,80.1,78.8,29.91,North,-999,0.0,0.0,96,0.00,,,-99.99,FreeWX 2.03,2013-07-13 13:11:00,
2013-07-13 08:16:00,80.2,79.0,29.91,North,-999,0.0,0.0,96,0.00,,,-99.99,FreeWX 2.03,2013-07-13 13:16:00,
2013-07-13 08:21:00,80.2,79.0,29.91,North,-999,0.0,0.0,96,0.00,,,-99.99,FreeWX 2.03,2013-07-13 13:21:00,
2013-07-13 08:26:00,80.2,78.6,29.91,North,-999,0.0,0.0,95,0.00,,,-99.99,FreeWX 2.03,2013-07-13 13:26:00,
2013-07-13 08:31:00,80.4,78.8,29.91,North,-999,0.0,0.0,95,0.00,,,-99.99,FreeWX 2.03,2013-07-13 13:31:00,
2013-07-13 08:36:00,80.4,78.4,29.91,North,-999,0.0,0.0,94,0.00,,,-99.99,FreeWX 2.03,2013-07-13 13:36:00,
2013-07-13 08:41:00,80.6,78.6,29.94,North,-999,0.0,0.0,94,0.00,,,-99.99,FreeWX 2.03,2013-07-13 13:41:00,
2013-07-13 08:46:00,80.8,78.6,29.94,North,-999,0.0,0.0,93,0.00,,,-99.99,FreeWX 2.03,2013-07-13 13:46:00,
2013-07-13 08:51:00,80.8,78.6,29.94,North,-999,0.0,0.0,93,0.00,,,-99.99,FreeWX 2.03,2013-07-13 13:51:00,
2013-07-13 08:56:00,81.0,78.8,29.94,North,-999,0.0,0.0,93,0.00,,,-99.99,FreeWX 2.03,2013-07-13 13:56:00,
2013-07-13 09:01:00,81.1,78.6,29.94,North,-999,0.0,0.0,92,0.00,,,-99.99,FreeWX 2.03,2013-07-13 14:01:00,
2013-07-13 09:06:00,81.3,78.4,29.94,North,-999,0.0,0.0,91,0.00,,,-99.99,FreeWX 2.03,2013-07-13 14:06:00,
2013-07-13 09:11:00,81.5,78.3,29.94,North,-999,0.0,0.0,90,0.00,,,-99.99,FreeWX 2.03,2013-07-13 14:11:00,
2013-07-13 09:16:00,81.5,78.3,29.94,North,-999,0.0,0.0,90,0.00,,,-99.99,FreeWX 2.03,2013-07-13 14:16:00,
2013-07-13 09:21:00,81.7,78.4,29.94,North,-999,0.0,0.0,90,0.00,,,-99.99,FreeWX 2.03,2013-07-13 14:21:00,
2013-07-13 09:26:00,81.7,78.4,29.94,North,-999,0.0,0.0,90,0.00,,,-99.99,FreeWX 2.03,2013-07-13 14:26:00,
2013-07-13 09:31:00,81.7,78.8,29.94,North,-999,0.0,0.0,91,0.00,,,-99.99,FreeWX 2.03,2013-07-13 14:31:00,
2013-07-13 09:36:00,81.5,78.6,29.94,North,-999,0.0,0.0,91,0.00,,,-99.99,FreeWX 2.03,2013-07-13 14:36:00,
2013-07-13 09:41:00,81.5,78.3,29.94,North,-999,0.0,0.0,90,0.00,,,-99.99,FreeWX 2.03,2013-07-13 14:41:00,
2013-07-13 09:46:00,81.5,78.3,29.94,North,-999,0.0,0.0,90,0.00,,,-99.99,FreeWX 2.03,2013-07-13 14:46:00,
2013-07-13 09:51:00,81.3,78.1,29.94,North,-999,0.0,0.0,90,0.00,,,-99.99,FreeWX 2.03,2013-07-13 14:51:00,
2013-07-13 09:56:00,81.3,78.1,29.94,North,-999,0.0,0.0,90,0.00,,,-99.99,FreeWX 2.03,2013-07-13 14:56:00,
2013-07-13 10:01:00,81.5,78.3,29.94,North,-999,0.0,0.0,90,0.00,,,-99.99,FreeWX 2.03,2013-07-13 15:01:00,
2013-07-13 10:06:00,81.5,77.9,29.94,North,-999,0.0,0.0,89,0.00,,,-99.99,FreeWX 2.03,2013-07-13 15:06:00,
2013-07-13 10:11:00,81.7,78.1,29.94,North,-999,0.0,0.0,89,0.00,,,-99.99,FreeWX 2.03,2013-07-13 15:11:00,
2013-07-13 10:16:00,81.9,78.3,29.94,North,-999,0.0,0.0,89,0.00,,,-99.99,FreeWX 2.03,2013-07-13 15:16:00,
2013-07-13 10:21:00,82.2,78.6,29.94,North,-999,0.0,0.0,89,0.00,,,-99.99,FreeWX 2.03,2013-07-13 15:21:00,
2013-07-13 10:27:00,82.4,78.8,29.94,North,-999,0.0,0.0,89,0.00,,,-99.99,FreeWX 2.03,2013-07-13 15:27:00,
2013-07-13 10:32:00,82.6,78.6,29.94,North,-999,0.0,0.0,88,0.00,,,-99.99,FreeWX 2.03,2013-07-13 15:32:00,
2013-07-13 10:37:00,82.8,78.4,29.94,North,-999,0.0,0.0,87,0.00,,,-99.99,FreeWX 2.03,2013-07-13 15:37:00,
2013-07-13 10:42:00,82.9,78.6,29.94,North,-999,0.0,0.0,87,0.00,,,-99.99,FreeWX 2.03,2013-07-13 15:42:00,
2013-07-13 10:47:00,82.8,78.4,29.94,North,-999,0.0,0.0,87,0.00,,,-99.99,FreeWX 2.03,2013-07-13 15:47:00,
2013-07-13 10:52:00,82.8,78.1,29.94,North,-999,0.0,0.0,86,0.00,,,-99.99,FreeWX 2.03,2013-07-13 15:52:00,
2013-07-13 10:57:00,82.8,78.4,29.94,North,-999,0.0,0.0,87,0.00,,,-99.99,FreeWX 2.03,2013-07-13 15:57:00,
2013-07-13 11:02:00,83.3,78.6,29.94,North,-999,0.0,0.0,86,0.00,,,-99.99,FreeWX 2.03,2013-07-13 16:02:00,
2013-07-13 11:07:00,84.0,79.3,29.94,North,-999,0.0,0.0,86,0.00,,,-99.99,FreeWX 2.03,2013-07-13 16:07:00,
2013-07-13 11:12:00,84.9,79.9,29.94,North,-999,0.0,0.0,85,0.00,,,-99.99,FreeWX 2.03,2013-07-13 16:12:00,
2013-07-13 11:17:00,85.5,79.7,29.94,North,-999,0.0,0.0,83,0.00,,,-99.99,FreeWX 2.03,2013-07-13 16:17:00,
2013-07-13 11:22:00,86.2,79.7,29.94,North,-999,0.0,0.0,81,0.00,,,-99.99,FreeWX 2.03,2013-07-13 16:22:00,
2013-07-13 11:27:00,86.9,79.5,29.94,North,-999,0.0,0.0,79,0.00,,,-99.99,FreeWX 2.03,2013-07-13 16:27:00,
2013-07-13 11:32:00,87.3,79.2,29.94,North,-999,0.0,0.0,77,0.00,,,-99.99,FreeWX 2.03,2013-07-13 16:32:00,
2013-07-13 11:37:00,87.6,79.2,29.94,North,-999,0.0,0.0,76,0.00,,,-99.99,FreeWX 2.03,2013-07-13 16:37:00,
2013-07-13 11:42:00,87.8,78.8,29.94,North,-999,0.0,0.0,75,0.00,,,-99.99,FreeWX 2.03,2013-07-13 16:42:00,
2013-07-13 11:47:00,88.5,79.2,29.94,North,-999,0.0,0.0,74,0.00,,,-99.99,FreeWX 2.03,2013-07-13 16:47:00,
2013-07-13 11:52:00,89.2,79.3,29.94,North,-999,0.0,0.0,73,0.00,,,-99.99,FreeWX 2.03,2013-07-13 16:52:00,
2013-07-13 11:57:00,90.0,78.8,29.94,North,-999,0.0,0.0,70,0.00,,,-99.99,FreeWX 2.03,2013-07-13 16:57:00,
2013-07-13 12:02:00,90.3,78.3,29.94,North,-999,0.0,0.0,68,0.00,,,-99.99,FreeWX 2.03,2013-07-13 17:02:00,
2013-07-13 12:07:00,90.9,78.3,29.94,North,-999,0.0,0.0,67,0.00,,,-99.99,FreeWX 2.03,2013-07-13 17:07:00,
2013-07-13 12:12:00,91.4,77.5,29.94,North,-999,0.0,0.0,64,0.00,,,-99.99,FreeWX 2.03,2013-07-13 17:12:00,
2013-07-13 12:17:00,92.1,77.7,29.94,North,-999,0.0,0.0,63,0.00,,,-99.99,FreeWX 2.03,2013-07-13 17:17:00,
2013-07-13 12:22:00,92.7,77.2,29.94,North,-999,0.0,0.0,61,0.00,,,-99.99,FreeWX 2.03,2013-07-13 17:22:00,
2013-07-13 12:27:00,92.8,76.3,29.94,North,-999,0.0,0.0,59,0.00,,,-99.99,FreeWX 2.03,2013-07-13 17:27:00,
2013-07-13 12:32:00,92.8,75.9,29.94,North,-999,0.0,0.0,58,0.00,,,-99.99,FreeWX 2.03,2013-07-13 17:32:00,
2013-07-13 12:37:00,93.0,75.6,29.94,North,-999,0.0,0.0,57,0.00,,,-99.99,FreeWX 2.03,2013-07-13 17:37:00,
2013-07-13 12:42:00,93.0,75.6,29.91,North,-999,0.0,0.0,57,0.00,,,-99.99,FreeWX 2.03,2013-07-13 17:42:00,
2013-07-13 12:47:00,92.8,74.8,29.91,North,-999,0.0,0.0,56,0.00,,,-99.99,FreeWX 2.03,2013-07-13 17:47:00,
2013-07-13 12:52:00,92.8,74.3,29.91,North,-999,0.0,0.0,55,0.00,,,-99.99,FreeWX 2.03,2013-07-13 17:52:00,
2013-07-13 12:57:00,92.8,74.8,29.91,North,-999,0.0,0.0,56,0.00,,,-99.99,FreeWX 2.03,2013-07-13 17:57:00,
2013-07-13 13:02:00,92.8,75.4,29.91,North,-999,0.0,0.0,57,0.00,,,-99.99,FreeWX 2.03,2013-07-13 18:02:00,
2013-07-13 13:07:00,92.8,73.8,29.91,North,-999,0.0,0.0,54,0.00,,,-99.99,FreeWX 2.03,2013-07-13 18:07:00,
2013-07-13 13:12:00,92.5,73.4,29.91,North,-999,0.0,0.0,54,0.00,,,-99.99,FreeWX 2.03,2013-07-13 18:12:00,
2013-07-13 13:17:00,92.3,73.2,29.91,North,-999,0.0,0.0,54,0.00,,,-99.99,FreeWX 2.03,2013-07-13 18:17:00,
2013-07-13 13:22:00,92.3,74.3,29.91,North,-999,0.0,0.0,56,0.00,,,-99.99,FreeWX 2.03,2013-07-13 18:22:00,
2013-07-13 13:27:00,92.1,74.1,29.91,North,-999,0.0,0.0,56,0.00,,,-99.99,FreeWX 2.03,2013-07-13 18:27:00,
2013-07-13 13:32:00,92.1,73.6,29.91,North,-999,0.0,0.0,55,0.00,,,-99.99,FreeWX 2.03,2013-07-13 18:32:00,
2013-07-13 13:37:00,92.1,74.1,29.91,North,-999,0.0,0.0,56,0.00,,,-99.99,FreeWX 2.03,2013-07-13 18:37:00,
2013-07-13 13:42:00,91.9,73.9,29.91,North,-999,0.0,0.0,56,0.00,,,-99.99,FreeWX 2.03,2013-07-13 18:42:00,
2013-07-13 13:47:00,91.8,73.2,29.91,North,-999,0.0,0.0,55,0.00,,,-99.99,FreeWX 2.03,2013-07-13 18:47:00,
2013-07-13 13:52:00,91.8,73.8,29.91,North,-999,0.0,0.0,56,0.00,,,-99.99,FreeWX 2.03,2013-07-13 18:52:00,
2013-07-13 13:57:00,91.8,74.3,29.91,North,-999,0.0,0.0,57,0.00,,,-99.99,FreeWX 2.03,2013-07-13 18:57:00,
2013-07-13 14:02:00,91.6,73.6,29.91,North,-999,0.0,0.0,56,0.00,,,-99.99,FreeWX 2.03,2013-07-13 19:02:00,
2013-07-13 14:07:00,91.4,73.9,29.91,North,-999,0.0,0.0,57,0.00,,,-99.99,FreeWX 2.03,2013-07-13 19:07:00,
2013-07-13 14:12:00,91.2,73.8,29.91,North,-999,0.0,0.0,57,0.00,,,-99.99,FreeWX 2.03,2013-07-13 19:12:00,
2013-07-13 14:17:00,91.2,74.3,29.91,North,-999,0.0,0.0,58,0.00,,,-99.99,FreeWX 2.03,2013-07-13 19:17:00,
2013-07-13 14:22:00,91.2,74.8,29.91,North,-999,0.0,0.0,59,0.00,,,-99.99,FreeWX 2.03,2013-07-13 19:22:00,
2013-07-13 14:27:00,91.2,74.8,29.91,North,-999,0.0,0.0,59,0.00,,,-99.99,FreeWX 2.03,2013-07-13 19:27:00,
2013-07-13 14:32:00,91.2,74.8,29.91,North,-999,0.0,0.0,59,0.00,,,-99.99,FreeWX 2.03,2013-07-13 19:32:00,
2013-07-13 14:37:00,91.2,74.3,29.91,North,-999,0.0,0.0,58,0.00,,,-99.99,FreeWX 2.03,2013-07-13 19:37:00,
2013-07-13 14:42:00,91.2,74.3,29.91,North,-999,0.0,0.0,58,0.00,,,-99.99,FreeWX 2.03,2013-07-13 19:42:00,
2013-07-13 14:47:00,91.2,73.8,29.91,North,-999,0.0,0.0,57,0.00,,,-99.99,FreeWX 2.03,2013-07-13 19:47:00,
2013-07-13 14:52:00,91.0,73.0,29.91,North,-999,0.0,0.0,56,0.00,,,-99.99,FreeWX 2.03,2013-07-13 19:52:00,
2013-07-13 14:57:00,90.9,73.4,29.91,North,-999,0.0,0.0,57,0.00,,,-99.99,FreeWX 2.03,2013-07-13 19:57:00,
2013-07-13 15:02:00,91.0,74.1,29.91,North,-999,0.0,0.0,58,0.00,,,-99.99,FreeWX 2.03,2013-07-13 20:02:00,
2013-07-13 15:07:00,91.0,73.6,29.91,North,-999,0.0,0.0,57,0.00,,,-99.99,FreeWX 2.03,2013-07-13 20:07:00,
2013-07-13 15:12:00,91.0,73.0,29.88,North,-999,0.0,0.0,56,0.00,,,-99.99,FreeWX 2.03,2013-07-13 20:12:00,
2013-07-13 15:17:00,91.0,72.5,29.88,North,-999,0.0,0.0,55,0.00,,,-99.99,FreeWX 2.03,2013-07-13 20:17:00,
2013-07-13 15:22:00,91.0,72.5,29.88,North,-999,0.0,0.0,55,0.00,,,-99.99,FreeWX 2.03,2013-07-13 20:22:00,
2013-07-13 15:27:00,91.0,72.0,29.88,North,-999,0.0,0.0,54,0.00,,,-99.99,FreeWX 2.03,2013-07-13 20:27:00,
2013-07-13 15:32:00,90.9,71.2,29.88,North,-999,0.0,0.0,53,0.00,,,-99.99,FreeWX 2.03,2013-07-13 20:32:00,
2013-07-13 15:37:00,90.7,71.8,29.88,North,-999,0.0,0.0,54,0.00,,,-99.99,FreeWX 2.03,2013-07-13 20:37:00,
2013-07-13 15:42:00,90.9,72.5,29.88,North,-999,0.0,0.0,55,0.00,,,-99.99,FreeWX 2.03,2013-07-13 20:42:00,
2013-07-13 15:47:00,90.9,72.0,29.88,North,-999,0.0,0.0,54,0.00,,,-99.99,FreeWX 2.03,2013-07-13 20:47:00,
2013-07-13 15:52:00,90.9,72.0,29.88,North,-999,0.0,0.0,54,0.00,,,-99.99,FreeWX 2.03,2013-07-13 20:52:00,
2013-07-13 15:57:00,90.7,72.3,29.88,North,-999,0.0,0.0,55,0.00,,,-99.99,FreeWX 2.03,2013-07-13 20:57:00,
2013-07-13 16:02:00,90.7,72.3,29.88,North,-999,0.0,0.0,55,0.00,,,-99.99,FreeWX 2.03,2013-07-13 21:02:00,
2013-07-13 16:07:00,90.9,72.5,29.88,North,-999,0.0,0.0,55,0.00,,,-99.99,FreeWX 2.03,2013-07-13 21:07:00,
2013-07-13 16:12:00,90.7,72.9,29.88,North,-999,0.0,0.0,56,0.00,,,-99.99,FreeWX 2.03,2013-07-13 21:12:00,
2013-07-13 16:17:00,90.5,72.7,29.88,North,-999,0.0,0.0,56,0.00,,,-99.99,FreeWX 2.03,2013-07-13 21:17:00,
2013-07-13 16:22:00,90.7,72.9,29.88,North,-999,0.0,0.0,56,0.00,,,-99.99,FreeWX 2.03,2013-07-13 21:22:00,
2013-07-13 16:27:00,90.9,73.4,29.88,North,-999,0.0,0.0,57,0.00,,,-99.99,FreeWX 2.03,2013-07-13 21:27:00,
2013-07-13 16:32:00,90.9,73.9,29.88,North,-999,0.0,0.0,58,0.00,,,-99.99,FreeWX 2.03,2013-07-13 21:32:00,
2013-07-13 16:37:00,90.9,73.0,29.88,North,-999,0.0,0.0,56,0.00,,,-99.99,FreeWX 2.03,2013-07-13 21:37:00,
2013-07-13 16:42:00,90.7,72.9,29.88,North,-999,0.0,0.0,56,0.00,,,-99.99,FreeWX 2.03,2013-07-13 21:42:00,
2013-07-13 16:47:00,90.5,72.7,29.88,North,-999,0.0,0.0,56,0.00,,,-99.99,FreeWX 2.03,2013-07-13 21:47:00,
2013-07-13 16:52:00,90.5,73.2,29.88,North,-999,0.0,0.0,57,0.00,,,-99.99,FreeWX 2.03,2013-07-13 21:52:00,
2013-07-13 16:57:00,90.3,73.6,29.85,North,-999,0.0,0.0,58,0.00,,,-99.99,FreeWX 2.03,2013-07-13 21:57:00,
2013-07-13 17:02:00,90.3,74.5,29.85,North,-999,0.0,0.0,60,0.00,,,-99.99,FreeWX 2.03,2013-07-13 22:02:00,
2013-07-13 17:07:00,90.3,74.5,29.85,North,-999,0.0,0.0,60,0.00,,,-99.99,FreeWX 2.03,2013-07-13 22:07:00,
2013-07-13 17:12:00,90.1,73.8,29.85,North,-999,0.0,0.0,59,0.00,,,-99.99,FreeWX 2.03,2013-07-13 22:12:00,
2013-07-13 17:17:00,90.0,74.1,29.85,North,-999,0.0,0.0,60,0.00,,,-99.99,FreeWX 2.03,2013-07-13 22:17:00,
2013-07-13 17:22:00,90.0,74.7,29.85,North,-999,0.0,0.0,61,0.00,,,-99.99,FreeWX 2.03,2013-07-13 22:22:00,
2013-07-13 17:27:00,90.0,75.2,29.85,North,-999,0.0,0.0,62,0.00,,,-99.99,FreeWX 2.03,2013-07-13 22:27:00,
2013-07-13 17:32:00,90.1,74.8,29.85,North,-999,0.0,0.0,61,0.00,,,-99.99,FreeWX 2.03,2013-07-13 22:32:00,
2013-07-13 17:37:00,90.0,74.7,29.85,North,-999,0.0,0.0,61,0.00,,,-99.99,FreeWX 2.03,2013-07-13 22:37:00,
2013-07-13 17:43:00,89.8,73.9,29.85,North,-999,0.0,0.0,60,0.00,,,-99.99,FreeWX 2.03,2013-07-13 22:43:00,
2013-07-13 17:48:00,89.6,74.8,29.85,North,-999,0.0,0.0,62,0.00,,,-99.99,FreeWX 2.03,2013-07-13 22:48:00,
2013-07-13 17:53:00,89.8,75.0,29.85,North,-999,0.0,0.0,62,0.00,,,-99.99,FreeWX 2.03,2013-07-13 22:53:00,
2013-07-13 17:58:00,89.6,74.8,29.85,North,-999,0.0,0.0,62,0.00,,,-99.99,FreeWX 2.03,2013-07-13 22:58:00,
2013-07-13 18:03:00,89.6,74.3,29.85,North,-999,0.0,0.0,61,0.00,,,-99.99,FreeWX 2.03,2013-07-13 23:03:00,
2013-07-13 18:08:00,89.4,74.7,29.85,North,-999,0.0,0.0,62,0.00,,,-99.99,FreeWX 2.03,2013-07-13 23:08:00,
2013-07-13 18:13:00,89.2,74.5,29.85,North,-999,0.0,0.0,62,0.00,,,-99.99,FreeWX 2.03,2013-07-13 23:13:00,
2013-07-13 18:18:00,88.9,74.7,29.85,North,-999,0.0,0.0,63,0.00,,,-99.99,FreeWX 2.03,2013-07-13 23:18:00,
2013-07-13 18:23:00,88.7,74.5,29.85,North,-999,0.0,0.0,63,0.00,,,-99.99,FreeWX 2.03,2013-07-13 23:23:00,
2013-07-13 18:28:00,88.3,74.7,29.85,North,-999,0.0,0.0,64,0.00,,,-99.99,FreeWX 2.03,2013-07-13 23:28:00,
2013-07-13 18:33:00,88.2,74.8,29.85,North,-999,0.0,0.0,65,0.00,,,-99.99,FreeWX 2.03,2013-07-13 23:33:00,
2013-07-13 18:38:00,88.0,74.7,29.85,North,-999,0.0,0.0,65,0.00,,,-99.99,FreeWX 2.03,2013-07-13 23:38:00,
2013-07-13 18:43:00,87.8,75.4,29.85,North,-999,0.0,0.0,67,0.00,,,-99.99,FreeWX 2.03,2013-07-13 23:43:00,
2013-07-13 18:48:00,87.8,75.9,29.85,North,-999,0.0,0.0,68,0.00,,,-99.99,FreeWX 2.03,2013-07-13 23:48:00,
2013-07-13 18:53:00,87.8,75.4,29.85,North,-999,0.0,0.0,67,0.00,,,-99.99,FreeWX 2.03,2013-07-13 23:53:00,
2013-07-13 18:58:00,88.0,75.6,29.85,North,-999,0.0,0.0,67,0.00,,,-99.99,FreeWX 2.03,2013-07-13 23:58:00,
2013-07-13 19:03:00,88.0,75.6,29.85,North,-999,0.0,0.0,67,0.00,,,-99.99,FreeWX 2.03,2013-07-14 00:03:00,
2013-07-13 19:08:00,88.0,75.2,29.85,North,-999,0.0,0.0,66,0.00,,,-99.99,FreeWX 2.03,2013-07-14 00:08:00,
2013-07-13 19:13:00,87.6,74.8,29.85,North,-999,0.0,0.0,66,0.00,,,-99.99,FreeWX 2.03,2013-07-14 00:13:00,
2013-07-13 19:18:00,87.6,75.2,29.85,North,-999,0.0,0.0,67,0.00,,,-99.99,FreeWX 2.03,2013-07-14 00:18:00,
2013-07-13 19:23:00,87.4,75.0,29.85,North,-999,0.0,0.0,67,0.00,,,-99.99,FreeWX 2.03,2013-07-14 00:23:00,
2013-07-13 19:28:00,87.4,75.0,29.85,North,-999,0.0,0.0,67,0.00,,,-99.99,FreeWX 2.03,2013-07-14 00:28:00,
2013-07-13 19:33:00,87.3,75.4,29.85,North,-999,0.0,0.0,68,0.00,,,-99.99,FreeWX 2.03,2013-07-14 00:33:00,
2013-07-13 19:38:00,87.1,75.2,29.85,North,-999,0.0,0.0,68,0.00,,,-99.99,FreeWX 2.03,2013-07-14 00:38:00,
2013-07-13 19:43:00,87.1,75.6,29.85,North,-999,0.0,0.0,69,0.00,,,-99.99,FreeWX 2.03,2013-07-14 00:43:00,
2013-07-13 19:48:00,87.1,75.6,29.85,North,-999,0.0,0.0,69,0.00,,,-99.99,FreeWX 2.03,2013-07-14 00:48:00,
2013-07-13 19:53:00,86.9,75.6,29.85,North,-999,0.0,0.0,69,0.00,,,-99.99,FreeWX 2.03,2013-07-14 00:53:00,
2013-07-13 19:58:00,86.5,75.2,29.85,North,-999,0.0,0.0,69,0.00,,,-99.99,FreeWX 2.03,2013-07-14 00:58:00,
2013-07-13 20:03:00,86.4,75.4,29.85,North,-999,0.0,0.0,70,0.00,,,-99.99,FreeWX 2.03,2013-07-14 01:03:00,
2013-07-13 20:08:00,86.2,75.2,29.85,North,-999,0.0,0.0,70,0.00,,,-99.99,FreeWX 2.03,2013-07-14 01:08:00,
2013-07-13 20:13:00,86.0,75.0,29.85,North,-999,0.0,0.0,70,0.00,,,-99.99,FreeWX 2.03,2013-07-14 01:13:00,
2013-07-13 20:18:00,85.6,75.2,29.85,North,-999,0.0,0.0,71,0.00,,,-99.99,FreeWX 2.03,2013-07-14 01:18:00,
2013-07-13 20:23:00,85.5,75.4,29.85,North,-999,0.0,0.0,72,0.00,,,-99.99,FreeWX 2.03,2013-07-14 01:23:00,
2013-07-13 20:28:00,85.1,75.0,29.85,North,-999,0.0,0.0,72,0.00,,,-99.99,FreeWX 2.03,2013-07-14 01:28:00,
2013-07-13 20:33:00,84.7,75.0,29.85,North,-999,0.0,0.0,73,0.00,,,-99.99,FreeWX 2.03,2013-07-14 01:33:00,
2013-07-13 20:38:00,84.4,74.8,29.85,North,-999,0.0,0.0,73,0.00,,,-99.99,FreeWX 2.03,2013-07-14 01:38:00,
2013-07-13 20:43:00,84.2,75.0,29.82,North,-999,0.0,0.0,74,0.00,,,-99.99,FreeWX 2.03,2013-07-14 01:43:00,
2013-07-13 20:48:00,84.0,75.2,29.82,North,-999,0.0,0.0,75,0.00,,,-99.99,FreeWX 2.03,2013-07-14 01:48:00,
2013-07-13 20:53:00,83.8,75.4,29.82,North,-999,0.0,0.0,76,0.00,,,-99.99,FreeWX 2.03,2013-07-14 01:53:00,
2013-07-13 20:58:00,83.7,75.2,29.82,North,-999,0.0,0.0,76,0.00,,,-99.99,FreeWX 2.03,2013-07-14 01:58:00,
2013-07-13 21:03:00,83.5,75.6,29.82,North,-999,0.0,0.0,77,0.00,,,-99.99,FreeWX 2.03,2013-07-14 02:03:00,
2013-07-13 21:08:00,83.3,75.4,29.82,North,-999,0.0,0.0,77,0.00,,,-99.99,FreeWX 2.03,2013-07-14 02:08:00,
2013-07-13 21:13:00,83.1,75.6,29.82,North,-999,0.0,0.0,78,0.00,,,-99.99,FreeWX 2.03,2013-07-14 02:13:00,
2013-07-13 21:18:00,82.9,75.4,29.82,North,-999,0.0,0.0,78,0.00,,,-99.99,FreeWX 2.03,2013-07-14 02:18:00,
2013-07-13 21:23:00,82.8,75.6,29.82,North,-999,0.0,0.0,79,0.00,,,-99.99,FreeWX 2.03,2013-07-14 02:23:00,
2013-07-13 21:28:00,82.8,75.6,29.85,North,-999,0.0,0.0,79,0.00,,,-99.99,FreeWX 2.03,2013-07-14 02:28:00,
2013-07-13 21:33:00,82.6,75.4,29.85,North,-999,0.0,0.0,79,0.00,,,-99.99,FreeWX 2.03,2013-07-14 02:33:00,
2013-07-13 21:38:00,82.4,75.6,29.85,North,-999,0.0,0.0,80,0.00,,,-99.99,FreeWX 2.03,2013-07-14 02:38:00,
2013-07-13 21:43:00,82.4,75.6,29.85,North,-999,0.0,0.0,80,0.00,,,-99.99,FreeWX 2.03,2013-07-14 02:43:00,
2013-07-13 21:48:00,82.4,75.9,29.85,North,-999,0.0,0.0,81,0.00,,,-99.99,FreeWX 2.03,2013-07-14 02:48:00,
2013-07-13 21:53:00,82.4,75.9,29.85,North,-999,0.0,0.0,81,0.00,,,-99.99,FreeWX 2.03,2013-07-14 02:53:00,
2013-07-13 21:58:00,82.4,75.9,29.85,North,-999,0.0,0.0,81,0.00,,,-99.99,FreeWX 2.03,2013-07-14 02:58:00,
2013-07-13 22:03:00,82.4,75.9,29.85,North,-999,0.0,0.0,81,0.00,,,-99.99,FreeWX 2.03,2013-07-14 03:03:00,
2013-07-13 22:08:00,82.4,75.9,29.85,North,-999,0.0,0.0,81,0.00,,,-99.99,FreeWX 2.03,2013-07-14 03:08:00,
2013-07-13 22:13:00,82.4,76.3,29.85,North,-999,0.0,0.0,82,0.00,,,-99.99,FreeWX 2.03,2013-07-14 03:13:00,
2013-07-13 22:18:00,82.4,76.3,29.85,North,-999,0.0,0.0,82,0.00,,,-99.99,FreeWX 2.03,2013-07-14 03:18:00,
2013-07-13 22:23:00,82.4,76.3,29.85,North,-999,0.0,0.0,82,0.00,,,-99.99,FreeWX 2.03,2013-07-14 03:23:00,
2013-07-13 22:28:00,82.4,75.9,29.85,North,-999,0.0,0.0,81,0.00,,,-99.99,FreeWX 2.03,2013-07-14 03:28:00,
2013-07-13 22:33:00,82.4,75.9,29.85,North,-999,0.0,0.0,81,0.00,,,-99.99,FreeWX 2.03,2013-07-14 03:33:00,
2013-07-13 22:38:00,82.4,75.9,29.85,North,-999,0.0,0.0,81,0.00,,,-99.99,FreeWX 2.03,2013-07-14 03:38:00,
2013-07-13 22:43:00,82.4,76.3,29.85,North,-999,0.0,0.0,82,0.00,,,-99.99,FreeWX 2.03,2013-07-14 03:43:00,
2013-07-13 22:48:00,82.4,76.3,29.85,North,-999,0.0,0.0,82,0.00,,,-99.99,FreeWX 2.03,2013-07-14 03:48:00,
2013-07-13 22:53:00,82.2,76.1,29.85,North,-999,0.0,0.0,82,0.00,,,-99.99,FreeWX 2.03,2013-07-14 03:53:00,
2013-07-13 22:58:00,82.2,76.1,29.85,North,-999,0.0,0.0,82,0.00,,,-99.99,FreeWX 2.03,2013-07-14 03:58:00,
2013-07-13 23:03:00,82.2,75.7,29.85,North,-999,0.0,0.0,81,0.00,,,-99.99,FreeWX 2.03,2013-07-14 04:03:00,
2013-07-13 23:08:00,82.2,75.7,29.85,North,-999,0.0,0.0,81,0.00,,,-99.99,FreeWX 2.03,2013-07-14 04:08:00,
2013-07-13 23:13:00,82.2,76.1,29.85,North,-999,0.0,0.0,82,0.00,,,-99.99,FreeWX 2.03,2013-07-14 04:13:00,
2013-07-13 23:18:00,82.0,76.3,29.85,North,-999,0.0,0.0,83,0.00,,,-99.99,FreeWX 2.03,2013-07-14 04:18:00,
2013-07-13 23:23:00,82.0,76.6,29.85,North,-999,0.0,0.0,84,0.00,,,-99.99,FreeWX 2.03,2013-07-14 04:23:00,
2013-07-13 23:28:00,82.0,76.6,29.88,North,-999,0.0,0.0,84,0.00,,,-99.99,FreeWX 2.03,2013-07-14 04:28:00,
2013-07-13 23:33:00,81.9,76.8,29.88,North,-999,0.0,0.0,85,0.00,,,-99.99,FreeWX 2.03,2013-07-14 04:33:00,
2013-07-13 23:38:00,81.9,76.8,29.88,North,-999,0.0,0.0,85,0.00,,,-99.99,FreeWX 2.03,2013-07-14 04:38:00,
2013-07-13 23:43:00,81.9,77.2,29.88,North,-999,0.0,0.0,86,0.00,,,-99.99,FreeWX 2.03,2013-07-14 04:43:00,
2013-07-13 23:48:00,81.7,77.0,29.88,North,-999,0.0,0.0,86,0.00,,,-99.99,FreeWX 2.03,2013-07-14 04:48:00,
2013-07-13 23:53:00,81.7,77.0,29.88,North,-999,0.0,0.0,86,0.00,,,-99.99,FreeWX 2.03,2013-07-14 04:53:00,
2013-07-13 23:59:00,81.7,77.0,29.88,North,-999,0.0,0.0,86,0.00,,,-99.99,FreeWX 2.03,2013-07-14 04:59:00,